Other Surface Observations
Issued by NWS Tucson, AZ

Home | Current Version | Previous Version | Text Only | Print | Product List | Glossary On
Versions: 1 2 3 4 5 6 7 8 9 10 11 12 13 14 15 16 17 18 19 20 21 22 23 24 25 26 27 28 29 30 31 32 33 34 35 36 37 38 39 40 41 42 43 44 45 46 47 48 49 50
164
SXUS55 KTWC 192015
OSOTWC

WEATHER ROUNDUP FOR SOUTHEAST ARIZONA
NATIONAL WEATHER SERVICE TUCSON AZ
115 PM MST SUN FEB 19 2017

AZZ504>506-514-192115-
LOCATION       SKY/WX    TMP DP  RH WIND       PRES   REMARKS
TUCSON         CLOUDY    57  42  57 SW7       29.97S
DAVIS-MONTHAN  PTSUNNY   57  41  55 W8        29.95F
CHILDRENS PARK N/A      N/A N/A  74 SE5               PIMA CO DEQ
ALVERNON/22ND  N/A       54 N/A N/A SE3               PIMA CO DEQ
CHERRY/GLENN   N/A       54 N/A N/A SE5               PIMA CO DEQ
TANGERINE      N/A       53 N/A N/A S7                PIMA CO DEQ
CONTL RANCH    N/A       54  46  73 SE8               PIMA CO DEQ
GRANT/1ST      N/A       54  45  72 SE4               PIMA CO DEQ
CRAYCROFT/22ND N/A       54  44  69 N/A               PIMA CO DEQ
GOLFLINKS/KOLB N/A       53  42  66 SW4               PIMA CO DEQ
AJO/12TH       N/A       54  44  70 S11               PIMA CO DEQ
FAIRGROUNDS    N/A       53 N/A N/A SW7               PIMA CO DEQ
SAGUARO        N/A       53  43  70 NE4               *SABINO CYN
SAN CARLOS     N/A       51  46  82 S2                *SAN CARLOS
GREEN VALLEY   N/A       52  41  67 S12               PIMA CO DEQ
HORSE CAMP CYN N/A       45  43  91 W5                *ARAVAIPA CYN
RINCON MTNS    NOT AVBL
$$

AZZ509>511-192115-
LOCATION       SKY/WX    TMP DP  RH WIND       PRES   REMARKS
SAFFORD        CLOUDY    57  35  43 VRB3      29.91F
STRAY HORSE    N/A       35  31  84 N/A               *
TRAIL CABIN    N/A       39  34  82 NW4               *N OF GRANVILLE
BLACK HILLS    NOT AVBL
DRY LAKE       N/A       36  35  98 SW3               *NATANES MTNS
NOON CREEK     NOT AVBL
COLUMBINE      N/A       26  26  98 SW3               *PINALENO MTNS
GUTHRIE        N/A       40  35  82 SW10G16           *SW OF GUTHRIE
$$

AZZ502-503-513-192115-
LOCATION       SKY/WX    TMP DP  RH WIND       PRES   REMARKS
NOGALES        PTSUNNY   51  41  68 SW8       29.97S
SELLS          N/A       56  45  67 S8G12             *
SASABE         N/A       52  42  68 S10G16            *ALTAR VLY
HOPKINS        N/A       34  33  96 W2                *SANTA RITA MTNS
CARR CYN       N/A       46  36  68 NE2               *W OF HEREFORD
$$

AZZ507-508-512-192115-
LOCATION       SKY/WX    TMP DP  RH WIND       PRES   REMARKS
SIERRA VISTA   PTSUNNY   52  34  50 SW13      29.96F
DOUGLAS        CLOUDY    49  38  65 S13       29.97F
EMPIRE MTNS    NOT AVBL
MULESHOE RANCH N/A       48  37  65 SW6G10            *PRESERVE
HEADQUARTERS   NOT AVBL
$$

.............................NOTES.............................
THIS IS AN AUTOMATED COLLECTIVE WITH MINIMAL QUALITY CONTROL.
PIMA CO DEQ SITES HAVE NONSTANDARD WIND SENSOR HEIGHTS.
PIMA CO DEQ SITES DO NOT REPORT WIND GUSTS.
* INDICATES WIND SENSORS LOCATED AT 20 FEET INSTEAD OF 33 FEET.
..............................KEY..............................
SKY/WX - SKY CONDITION/WEATHER
TMP    - TEMPERATURE IN FAHRENHEIT
DP     - DEWPOINT IN FAHRENHEIT
RH     - RELATIVE HUMIDITY IN PERCENT
WIND   - DIRECTION AND SPEED IN MILES PER HOUR (MPH)
VRB    - VARIABLE WIND DIRECTION
PRES   - MEAN SEA LEVEL PRESSURE IN INCHES OF MERCURY
         F - FALLING PRESSURE   R - RISING PRESSURE
         S - STEADY PRESSURE
VSB    - VISIBILITY IN MILES
HX     - HEAT INDEX IN FAHRENHEIT
WCI    - WIND CHILL INDEX IN FAHRENHEIT
N/A    - NOT AVAILABLE
AFB    - AIR FORCE BASE
         DAVIS-MONTHAN IS DAVIS-MONTHAN AIR FORCE BASE
CYN    - CANYON
MTNS   - MOUNTAINS
NCA    - NATIONAL CONSERVATION AREA
NR     - NEAR
VLY    - VALLEY
CONTL  - CONTINENTAL
PIMA CO DEQ - PIMA COUNTY DEPT OF ENVIRONMENTAL QUALITY



USA.gov is the U.S. government's official web portal to all federal, state and local government web resources and services.